Terminal Aerodrome Forecast
Issued by NWS

Home | Current Version | Previous Version | Text Only | Print | Product List | Glossary On
Versions: 1 2 3 4 5 6 7 8 9 10 11 12 13 14 15 16 17 18 19 20
000
FTUS43 KLSX 190540
TAFSUS
TAF
KSUS 190540Z 1906/2006 18009KT P6SM OVC020 WS017/21050KT
     FM190900 18012KT P6SM -SHRA VCTS OVC020CB WS017/21050KT
     FM191500 19016G23KT 4SM -SHRA VCTS OVC035CB
     FM191800 20016G26KT P6SM -SHRA VCTS OVC035CB
     FM192300 18014G21KT P6SM OVC040
     FM200400 18013G20KT P6SM -SHRA OVC025=

USA.gov is the U.S. government's official web portal to all federal, state and local government web resources and services.